Location: Austin
(30.3000°N, 97.7500°W)
Time: 08:47:43
(UTC-05:00)

CZ-2C R/B - Pass Details

Date: 19 September 2023
Orbit: 667 x 780 km, 98.3° (Epoch: 25 September)

Event Time Altitude Azimuth Distance (km) Brightness Sun altitude
Rises 05:15:33 0° 5° (N) 3,172 6.0 -26.7°
Reaches altitude 10° 05:17:55 10° 1° (N) 2,229 5.1 -26.2°
Enters shadow 05:21:03 36° 337° (NNW) 1,133 3.3 -25.5°
